{"data":{"norad_id":68853,"intl_designator":"2026-094Q","name":"STARLINK-37476","alt_names":[],"object_type":"PAYLOAD","status":"ACTIVE","operator":null,"country":"US","launch_date":"2026-04-26","launch_site_code":"AFWTR","launch_vehicle":null,"mission":null,"orbit_class":"UNKNOWN","rcs_meters":null,"size_class":null,"mass_kg":null,"dimensions":null,"purposes":["comms"],"wikipedia_slug":null,"has_3d_model":false,"image_url":null,"decayed_at":null,"tle_current":{"epoch":"2026-05-25T00:54:41.014944Z","epoch_age_seconds":65628,"freshness":"FRESH","line1":"1 68853U 26094Q   26145.03797471  .00042229  00000+0  77369-3 0  9990","line2":"2 68853  97.2858 159.6998 0001752 311.2139  48.8961 15.49198430  4490","mean_motion":15.4919843,"eccentricity":0.0001752,"inclination_deg":97.2858,"raan_deg":159.6998,"arg_perigee_deg":311.2139,"mean_anomaly_deg":48.8961,"bstar":0.00077369,"rev_number":449,"period_min":92.95129481896,"perigee_km":417.87881437909,"apogee_km":420.26055560152,"semimajor_km":6797.2066849903,"source":"CELESTRAK","updated_at":"2026-05-25T13:38:22.048592Z"}}}